ATLAS CENTAUR 2 1 00694U 63047A 26194.35990257 .00000685 00000+0 72298-4 0 9991 2 00694 30.3509 213.0218 0545699 108.3355 257.7366 14.12563263149408 THOR AGENA D R/B 1 00733U 64002A 26195.01869863 .00000072 00000+0 43238-4 0 9991 2 00733 99.1155 215.1978 0031797 250.1272 109.6483 14.34075699256400 SL-3 R/B 1 00877U 64053B 26194.74432367 .00000032 00000+0 30578-4 0 9999 2 00877 65.0780 321.6431 0080317 252.7711 106.4587 14.61439092285212 SL-8 R/B 1 02802U 67045B 26195.14281463 .00000121 00000+0 41100-4 0 9999 2 02802 74.0111 111.9147 0063011 88.8598 271.9778 14.45695056107294 SL-8 R/B 1 03230U 68040B 26195.05832426 .00001199 00000+0 89564-4 0 9994 2 03230 74.0291 55.3299 0025152 203.6808 156.3225 15.03937027109009 OAO 2 1 03597U 68110A 26194.33791983 .00000099 00000+0 31855-4 0 9998 2 03597 34.9935 283.6648 0004950 128.4638 231.6497 14.47361414 37317 ISIS 1 1 03669U 69009A 26194.83489690 .00000035 00000+0 17934-4 0 9992 2 03669 88.4450 141.4735 1707124 194.4010 160.1877 11.30436447362780 SERT 2 1 04327U 70009A 26194.76383448 -.00000024 00000+0 24299-4 0 9993 2 04327 99.2840 131.0509 0004478 192.8831 228.5575 13.58740904797013 SL-3 R/B 1 05118U 71028B 26195.18827132 .00037583 00000+0 28070-3 0 9993 2 05118 81.2311 254.4874 0014605 185.3404 174.7702 15.72386084 8480 ASTEX 1 1 05560U 71089A 26195.03923700 .00000208 00000+0 52953-4 0 9995 2 05560 92.7005 192.5037 0016489 26.0930 334.1103 14.50870970880626 SL-8 R/B 1 05730U 71119B 26194.70219105 .00003953 00000+0 20355-3 0 9998 2 05730 73.8887 299.7520 0542819 240.3836 114.2207 14.39721678673615 OAO 3 (COPERNICUS) 1 06153U 72065A 26194.35523248 .00000143 00000+0 33641-4 0 9997 2 06153 35.0062 301.3016 0005948 109.9719 291.6079 14.60074280864575 ATLAS CENTAUR R/B 1 06155U 72065B 26194.69162668 .00000368 00000+0 53144-4 0 9990 2 06155 35.0017 287.1560 0033703 350.0814 9.9219 14.77964526859914 SL-8 R/B 1 08459U 75112B 26195.16796947 .00000120 00000+0 48131-4 0 9997 2 08459 74.0605 146.2380 0016244 209.2874 150.7371 14.38257854650050 SL-3 R/B 1 10114U 77057B 26195.17002374 .00006470 00000+0 12390-3 0 9994 2 10114 97.5845 13.0294 0007094 173.7676 186.3663 15.48398405687880 SEASAT 1 1 10967U 78064A 26195.14585057 .00000035 00000+0 48202-4 0 9993 2 10967 108.0181 30.8821 0001110 254.3646 105.7377 14.46259859524799 SL-14 R/B 1 11267U 79011B 26195.20257608 .00000245 00000+0 21611-4 0 9993 2 11267 82.5253 336.5147 0015884 0.5007 359.6226 14.92037554547640 SL-8 R/B 1 11574U 79089B 26195.18463561 .00000070 00000+0 29098-4 0 9996 2 11574 74.0670 216.8798 0015961 351.8869 8.2026 14.42414362454346 SL-14 R/B 1 11672U 80005B 26195.03062269 .00000291 00000+0 26710-4 0 9992 2 11672 82.5136 187.3760 0017328 101.0934 259.2234 14.91049470495313 SL-8 R/B 1 12139U 81003B 26194.97520155 .00011582 00000+0 27462-3 0 9994 2 12139 82.9359 172.8692 0250140 97.8393 265.1313 15.15036652333778 SL-3 R/B 1 12465U 81046B 26195.14082625 .00007356 00000+0 15594-3 0 9995 2 12465 81.2315 137.5867 0015822 301.2224 58.7469 15.44764697457939 SL-3 R/B 1 12904U 81103B 26195.13337354 .00002303 00000+0 98199-4 0 9998 2 12904 81.1573 64.9705 0011984 215.6513 144.3920 15.22483683992465 SL-3 R/B 1 13068U 82013B 26195.16218208 .00002407 00000+0 10067-3 0 9992 2 13068 81.1732 12.3878 0022887 111.7838 248.5833 15.22957558423592 SL-3 R/B 1 13154U 82039B 26195.12626400 .00001768 00000+0 10445-3 0 9998 2 13154 81.1509 69.9658 0028187 262.0887 97.7139 15.10694670400720 SL-3 R/B 1 13403U 82079B 26195.13346273 .00003076 00000+0 11752-3 0 9993 2 13403 81.1445 43.6069 0024943 97.0190 263.3882 15.26007403396976 SL-14 R/B 1 13553U 82092B 26195.05190094 .00000223 00000+0 22255-4 0 9995 2 13553 82.5668 23.1606 0018940 239.7719 243.0220 14.86764434347703 SL-3 R/B 1 13819U 83010B 26195.11576512 .00008845 00000+0 15732-3 0 9990 2 13819 81.0992 206.7816 0013403 327.7586 32.2840 15.49892655377507 SL-3 R/B 1 14208U 83075B 26195.15163911 .00006303 00000+0 15398-3 0 9998 2 14208 97.6101 204.7668 0022092 133.1781 227.1316 15.40967503349618 COSMOS 1536 1 14699U 84013A 26194.99584029 .00003653 00000+0 14328-3 0 9990 2 14699 82.5453 342.1357 0013815 192.5396 167.5501 15.25335859291863 SL-14 R/B 1 14820U 84027B 26194.87889252 .00000212 00000+0 21389-4 0 9998 2 14820 82.5430 126.6881 0016328 276.3370 83.5987 14.86078587266377 SL-8 R/B 1 15483U 85006B 26195.02180704 .00000135 00000+0 53458-4 0 9992 2 15483 74.0453 28.6806 0019260 271.8572 203.0115 14.37844960172183 SL-12 R/B(2) 1 15772U 85042D 26195.17716421 -.00000031 00000+0 76013-5 0 9999 2 15772 71.1066 180.4923 0037290 287.6637 147.4167 14.22010795132379 SL-14 R/B 1 15945U 85069B 26195.16161822 .00000225 00000+0 22503-4 0 9996 2 15945 82.5263 265.9984 0019984 130.4954 229.8008 14.86534776191621 SL-16 R/B 1 16182U 85097B 26195.17005743 .00000085 00000+0 66460-4 0 9995 2 16182 71.0008 234.2711 0005587 53.7926 3.6701 14.16612495105140 SL-14 R/B 1 16496U 86006B 26194.96883515 .00000229 00000+0 21549-4 0 9990 2 16496 82.5282 140.9114 0075375 212.9707 146.6799 14.86967714167975 COSMOS 1743 1 16719U 86034A 26194.75529681 .00037584 00000+0 31835-3 0 9999 2 16719 82.5287 300.4321 0005351 180.7923 179.3331 15.69503231199950 SL-14 R/B 1 16792U 86046B 26194.82387742 .00000250 00000+0 25918-4 0 9997 2 16792 82.4837 321.0061 0023409 167.4760 192.7043 14.85689957145133 SL-14 R/B 1 16882U 86055B 26194.95984795 .00000218 00000+0 22243-4 0 9994 2 16882 82.5202 7.9578 0017309 274.7306 199.6609 14.85739807138117 AJISAI (EGS) 1 16908U 86061A 26195.20516296 -.00000111 00000+0 -93245-4 0 9990 2 16908 50.0105 64.3158 0011092 249.3523 208.2393 12.44516665483759 SL-14 R/B 1 17567U 87024B 26194.87875213 .00000239 00000+0 24408-4 0 9995 2 17567 82.5296 334.1611 0017699 198.2392 161.8192 14.86231187106876 COSMOS 1833 1 17589U 87027A 26195.07899662 .00000101 00000+0 79821-4 0 9996 2 17589 70.9212 60.3465 0024167 10.5041 349.6579 14.13066318 28172 SL-16 R/B 1 17590U 87027B 26194.89691319 .00000018 00000+0 32810-4 0 9990 2 17590 71.0031 10.5418 0007140 282.9811 77.0516 14.17173222 33224 SL-14 R/B 1 17912U 87038B 26195.00606743 .00000209 00000+0 21275-4 0 9996 2 17912 82.5012 177.8099 0020799 105.8346 254.5165 14.85460995 97987 COSMOS 1844 1 17973U 87041A 26195.19046860 .00000111 00000+0 82432-4 0 9999 2 17973 70.8998 127.3489 0031400 196.7182 163.2908 14.14580460 21472 SL-14 R/B 1 18153U 87055B 26195.16268971 .00000207 00000+0 20973-4 0 9999 2 18153 82.4972 229.7987 0019473 318.6989 41.2753 14.85726657 88711 COSMOS 1867 1 18187U 87060A 26194.68035478 -.00000061 00000+0 14833-4 0 9999 2 18187 65.0119 313.8622 0017119 282.0141 77.9025 14.31518371 37971 SL-14 R/B 1 18749U 88001B 26195.16663001 .00000213 00000+0 21777-4 0 9995 2 18749 82.5120 76.3905 0018088 175.1469 184.9926 14.85626430 60809 COSMOS 1933 1 18958U 88020A 26195.18147899 .00001688 00000+0 79420-4 0 9997 2 18958 82.5142 125.7021 0005835 110.0197 250.1666 15.18884973 69424 SL-3 R/B 1 19046U 88032B 26195.15167705 .00002229 00000+0 10278-3 0 9991 2 19046 97.5269 178.1706 0026406 149.2388 211.0402 15.21026787 71325 SL-16 R/B 1 19120U 88039B 26195.17829660 -.00000070 00000+0 -10572-4 0 9990 2 19120 71.0124 161.0850 0020676 151.0255 209.2022 14.19631366976336 COSMOS 1953 1 19210U 88050A 26195.02680007 .00004876 00000+0 16480-3 0 9996 2 19210 82.5059 30.9589 0011621 43.6557 316.5601 15.30328485 57091 SL-8 R/B 1 19257U 88053B 26195.18785666 .00000126 00000+0 49432-4 0 9992 2 19257 74.0459 239.2860 0019669 25.1557 31.5252 14.38977982994795 COSMOS 1975 1 19573U 88093A 26194.91238831 .00004046 00000+0 13938-3 0 9990 2 19573 82.5194 350.8100 0012544 86.3486 273.9189 15.29652509 38693 SL-14 R/B 1 19574U 88093B 26195.20554111 .00000210 00000+0 21335-4 0 9996 2 19574 82.5316 283.2809 0020102 343.7156 44.0876 14.85759758 19805 SL-16 R/B 1 19650U 88102B 26195.19944892 -.00000159 00000+0 -56116-4 0 9998 2 19650 70.9979 245.3024 0014373 187.0705 173.0218 14.16166800944800 INTERCOSMOS 24 1 20261U 89080A 26195.01877367 .00000178 00000+0 48155-4 0 9990 2 20261 82.6048 22.1804 1187246 359.6764 0.3439 12.59691711682701 SL-14 R/B 1 20262U 89080C 26195.12248206 .00000072 00000+0 21107-4 0 9998 2 20262 82.5934 92.0014 1228666 255.7465 90.4394 12.50578365675959 DELTA 1 R/B 1 20323U 89089B 26195.11852301 .00000141 00000+0 43339-4 0 9999 2 20323 97.0634 22.3669 0070642 83.3180 277.6051 14.50747460914067 ARIANE 40 R/B 1 20443U 90005H 26195.14502545 .00000104 00000+0 46468-4 0 9992 2 20443 98.2946 251.9209 0010206 177.0959 183.0291 14.39940424911003 DELTA 2 R/B(1) 1 20453U 90008B 26195.00627150 .00082144 00000+0 50554-3 0 9995 2 20453 35.6003 55.6406 0059527 4.6810 355.4478 15.73412541945924 COSMOS 2058 1 20465U 90010A 26195.20118654 .00001616 00000+0 91993-4 0 9995 2 20465 82.4671 282.7128 0007900 254.1375 105.8985 15.12153403961355 SL-14 R/B 1 20466U 90010B 26194.94262074 .00000193 00000+0 20471-4 0 9994 2 20466 82.5035 148.8186 0018333 241.7174 118.2191 14.83662655947204 SL-14 R/B 1 20511U 90018B 26195.14950951 .00000217 00000+0 24121-4 0 9997 2 20511 82.5218 104.9076 0017105 40.1167 320.1307 14.82233700941311 HST 1 20580U 90037B 26194.47969025 .00003768 00000+0 11460-3 0 9996 2 20580 28.4725 260.8360 0002200 88.2424 271.8424 15.31050307792609 SL-16 R/B 1 20625U 90046B 26195.02292117 .00000208 00000+0 13192-3 0 9999 2 20625 70.9985 32.5861 0012415 116.3522 243.8877 14.15024113866262 COSMOS 2084 1 20663U 90055A 26195.21560666 .00000893 00000+0 74394-4 0 9991 2 20663 62.7884 263.8314 0007956 317.1434 42.9046 15.06221867955373 SL-6 R/B(2) 1 20666U 90055D 26195.17536747 .00001028 00000+0 87120-4 0 9994 2 20666 62.7804 183.5316 0044975 8.8774 351.3110 15.04085524957211 SL-8 R/B 1 20775U 90078B 26194.93602074 .00010995 00000+0 31152-3 0 9996 2 20775 82.9034 137.4513 0343701 307.8233 49.2328 14.93548341828117 SL-8 R/B 1 21088U 91006B 26195.16688920 .00000089 00000+0 74294-4 0 9994 2 21088 82.9409 75.9613 0023487 43.2694 69.3106 13.77509072781480 OKEAN-3 1 21397U 91039A 26195.12548868 .00001726 00000+0 11815-3 0 9993 2 21397 82.5141 214.2557 0012314 258.7363 101.2480 15.05430787884057 COSMOS 2151 1 21422U 91042A 26195.13473512 .00000655 00000+0 49755-4 0 9995 2 21422 82.4980 321.6742 0012068 359.1393 0.9808 15.00511517882154 SL-14 R/B 1 21423U 91042B 26195.16178626 .00000184 00000+0 20198-4 0 9994 2 21423 82.4932 101.6006 0016885 180.2914 179.8293 14.81917700871800 ERS-1 1 21574U 91050A 26195.06414184 .00000151 00000+0 62776-4 0 9993 2 21574 98.7797 216.4182 0031849 185.1219 174.9646 14.39532490833915 ARIANE 40 R/B 1 21610U 91050F 26195.09251433 .00000126 00000+0 50218-4 0 9993 2 21610 98.1864 242.4594 0004205 63.8235 296.3388 14.42971532837225 INTERCOSMOS 25 1 21819U 91086A 26195.10261338 .00000254 00000+0 47665-4 0 9994 2 21819 82.6010 233.5222 1484519 204.2831 148.0759 12.12239770512007 SL-8 R/B 1 21876U 92008B 26195.03157774 .00000103 00000+0 89563-4 0 9998 2 21876 82.9271 173.8284 0035610 139.7797 284.5316 13.75983585726790 SL-8 R/B 1 21938U 92020B 26195.12377877 .00000035 00000+0 20388-4 0 9993 2 21938 82.9285 59.8465 0027984 306.7221 167.5087 13.75550278718516 USA 81 1 21949U 92023A 26195.16944021 .00000112 00000+0 34052-4 0 9992 2 21949 85.0051 58.4309 0002034 65.0650 295.0754 14.32404781112893 COSMOS 2219 1 22219U 92076A 26195.14148556 -.00000202 00000+0 -81025-4 0 9992 2 22219 71.0613 113.7262 0018204 359.0696 1.0390 14.14109061736254 SL-16 R/B 1 22220U 92076B 26195.20336705 .00000191 00000+0 11924-3 0 9991 2 22220 71.0005 281.8709 0015036 263.4058 121.3330 14.16877072739758 COSMOS 2221 1 22236U 92080A 26194.95043751 .00000844 00000+0 71659-4 0 9997 2 22236 82.5045 158.1228 0015637 124.0036 236.2674 14.96601924799676 SL-16 R/B 1 22285U 92093B 26195.16748096 -.00000216 00000+0 -86231-4 0 9990 2 22285 71.0219 98.7528 0002321 137.5600 222.5703 14.15466192731056 COSMOS 2228 1 22286U 92094A 26195.14726859 .00000891 00000+0 73698-4 0 9993 2 22286 82.5188 116.2194 0016245 232.9438 127.0300 14.97673649794983 SL-16 R/B 1 22566U 93016B 26194.72634955 .00000122 00000+0 86815-4 0 9999 2 22566 71.0084 310.4657 0008904 140.6294 219.5478 14.15312008720006 COSMOS 2242 1 22626U 93024A 26195.05225772 .00000894 00000+0 75322-4 0 9992 2 22626 82.5198 145.8402 0014598 236.8563 123.1260 14.96982913799290 SL-16 R/B 1 22803U 93059B 26195.16924699 -.00000193 00000+0 -71730-4 0 9996 2 22803 70.9902 104.4043 0016594 10.0532 350.0920 14.17249694697453 ARIANE 40 R/B 1 22830U 93061H 26195.15897763 .00000075 00000+0 43385-4 0 9991 2 22830 98.4807 261.4541 0009478 269.1596 90.8503 14.32918283712211 COSMOS 2278 1 23087U 94023A 26195.19229084 -.00000040 00000+0 38463-5 0 9999 2 23087 71.0524 270.4247 0009698 207.1113 152.9504 14.14393228662696 SL-16 R/B 1 23088U 94023B 26195.18199345 .00000061 00000+0 55885-4 0 9993 2 23088 70.9983 165.2394 0001426 132.1057 228.0187 14.15024185663982 SL-16 R/B 1 23343U 94074B 26195.05800991 .00000197 00000+0 32920-4 0 9990 2 23343 97.6987 220.6583 0007075 157.7125 228.7603 14.79523761705933 SL-16 R/B 1 23405U 94077B 26195.11424948 -.00000137 00000+0 -45309-4 0 9994 2 23405 70.9822 86.5138 0004092 304.1978 55.8756 14.15574410634126 ARIANE 40+ R/B 1 23561U 95021B 26195.15488075 .00000119 00000+0 51810-4 0 9994 2 23561 98.4401 264.8388 0007876 119.1711 294.3175 14.39847245637445 SL-16 R/B 1 23705U 95058B 26195.19798894 .00000116 00000+0 83453-4 0 9996 2 23705 71.0210 274.6492 0014609 284.0335 75.9164 14.15508447585750 SL-16 R/B 1 24298U 96051B 26195.22600213 .00000151 00000+0 10835-3 0 9991 2 24298 70.7647 267.4281 0017731 299.3502 60.5846 14.12456089539519 ORBVIEW 2 (SEASTAR) 1 24883U 97037A 26195.06313926 .00000098 00000+0 50364-4 0 9992 2 24883 98.8712 2.8304 0003123 63.2348 296.9156 14.35566462526603 SL-16 R/B 1 25400U 98043G 26194.88428064 -.00000005 00000+0 16809-4 0 9990 2 25400 98.8379 149.2753 0010109 15.1301 345.0179 14.26072577456971 SL-16 R/B 1 25407U 98045B 26195.21747678 -.00000227 00000+0 -90586-4 0 9993 2 25407 71.0111 275.4847 0008247 208.0407 152.0273 14.16205652445016 ISS (ZARYA) 1 25544U 98067A 26195.15353936 .00004039 00000+0 81426-4 0 9998 2 25544 51.6308 166.6375 0006704 293.6864 66.3421 15.49005057575931 CZ-4B R/B 1 25732U 99025C 26195.08567646 .00000025 00000+0 32688-4 0 9996 2 25732 98.6473 236.2454 0036692 342.9734 70.4601 14.18287581406083 OKEAN-O 1 25860U 99039A 26195.17945521 .00000274 00000+0 42590-4 0 9994 2 25860 97.9302 253.6655 0000898 85.1191 275.0123 14.80496700453107 SL-16 R/B 1 25861U 99039B 26195.17619061 .00000223 00000+0 35002-4 0 9996 2 25861 97.9824 253.9603 0014244 201.8503 158.2104 14.81870184455596 DELTA 2 R/B 1 25876U 99041E 26195.07229722 .00001342 00000+0 25412-3 0 9991 2 25876 51.7613 156.3836 0501357 1.4424 358.7825 14.12081977380886 HELIOS 1B 1 25977U 99064A 26195.14322759 .00000687 00000+0 81065-4 0 9998 2 25977 98.1586 101.0608 0002009 54.9736 305.1668 14.88073857704067 TERRA 1 25994U 99068A 26195.12929899 .00000198 00000+0 49282-4 0 9999 2 25994 97.9442 243.6054 0003368 124.9231 259.1124 14.61123253413541 SL-16 R/B 1 26070U 00006B 26195.19500525 -.00000182 00000+0 -68219-4 0 9993 2 26070 71.0002 191.8359 0017145 341.3356 18.7136 14.15838195366462 TITAN 4B R/B 1 26474U 00047B 26195.14713735 .00001275 00000+0 84214-4 0 9995 2 26474 67.9873 44.6781 0045857 259.7886 99.8090 15.10330243412003 ENVISAT 1 27386U 02009A 26194.87955882 .00000019 00000+0 20032-4 0 9991 2 27386 98.3846 145.6047 0001336 83.8152 340.0934 14.39070590277325 IDEFIX & ARIANE 42P R/B 1 27422U 02021B 26194.83783203 .00000086 00000+0 49181-4 0 9998 2 27422 98.5942 132.0327 0011809 170.4140 189.7270 14.31093401262066 AQUA 1 27424U 02022A 26195.22072984 .00000370 00000+0 83227-4 0 9997 2 27424 98.4295 165.0470 0000915 111.3891 305.7736 14.62196256287224 CZ-4B R/B 1 27432U 02024C 26195.11726338 .00000012 00000+0 29168-4 0 9992 2 27432 98.8687 247.7606 0050519 25.0330 28.8435 14.14568134247113 MIDORI II (ADEOS-II) 1 27597U 02056A 26194.87854068 .00000097 00000+0 56057-4 0 9993 2 27597 98.7894 154.3676 0001536 42.3946 317.7354 14.29362687228327 H-2A R/B 1 27601U 02056E 26194.87808299 .00000115 00000+0 54701-4 0 9999 2 27601 98.3328 150.5818 0070820 144.8127 274.0126 14.33833472232190 CZ-4B R/B 1 28059U 03049C 26194.98027505 .00000140 00000+0 43869-4 0 9996 2 28059 98.6909 194.8948 0047567 205.0029 154.8863 14.55115618204960 CZ-2C R/B 1 28222U 04012C 26195.17164255 .00106424 00000+0 45024-3 0 9991 2 28222 97.7055 274.0946 0011390 193.7629 166.3331 15.84994516224164 SL-16 R/B 1 28353U 04021B 26194.81968867 .00000016 00000+0 32851-4 0 9992 2 28353 71.0027 327.7949 0006353 226.3027 133.7570 14.14616296140674 CZ-4B R/B 1 28415U 04035C 26195.12918883 .00004275 00000+0 14363-3 0 9992 2 28415 97.3357 227.9037 0029177 236.6045 123.2404 15.30983035199246 CZ-2C R/B 1 28480U 04046B 26195.18657066 .00000055 00000+0 35353-4 0 9990 2 28480 98.1918 102.2766 0140066 140.3620 220.7903 14.27032923126541 ARIANE 5 R/B 1 28499U 04049H 26195.07393738 .00000253 00000+0 34894-4 0 9993 2 28499 98.2740 8.3695 0082684 301.9758 57.3437 14.85478254164554 CZ-2D R/B 1 28738U 05024B 26195.03384117 .00046916 00000+0 34971-3 0 9991 2 28738 97.3468 215.8620 0002193 194.2421 165.8781 15.72643858159559 ALOS (DAICHI) 1 28931U 06002A 26194.83986938 .00000483 00000+0 88602-4 0 9999 2 28931 98.1336 150.3269 0000815 96.7741 263.3557 14.70100301 92019 H-2A R/B 1 28932U 06002B 26195.01047333 .00004862 00000+0 23236-3 0 9994 2 28932 98.2586 353.2768 0050742 170.0284 190.1967 15.18433591113590 RESURS-DK 1 1 29228U 06021A 26195.20284418 .00000957 00000+0 59675-4 0 9990 2 29228 69.9309 269.6153 0007041 271.9695 88.0665 15.13317177106662 CZ-4B R/B 1 29507U 06046C 26195.08364781 .00002502 00000+0 12497-3 0 9993 2 29507 97.5440 239.6082 0032466 185.9648 174.1203 15.17976179 79216 CZ-2C R/B 1 31114U 07010B 26195.18255738 .00000027 00000+0 31694-4 0 9995 2 31114 98.4118 302.2159 0057788 286.7736 72.7106 14.20281611997676 COSMO-SKYMED 1 1 31598U 07023A 26195.20289772 .00001398 00000+0 12599-3 0 9997 2 31598 97.8844 27.2873 0001338 103.3925 256.7446 14.97216583 33832 COSMOS 2428 1 31792U 07029A 26194.69214999 .00000208 00000+0 13714-3 0 9999 2 31792 70.9381 298.8270 0007203 84.1445 276.0497 14.12933515981890 SL-16 R/B 1 31793U 07029B 26195.18108926 .00000135 00000+0 94854-4 0 9991 2 31793 70.9745 266.4847 0001988 256.0619 132.6386 14.14851357983265 KORONAS-FOTON 1 33504U 09003A 26194.87472598 .00008185 00000+0 16498-3 0 9991 2 33504 82.4305 144.4094 0012285 66.2875 293.9661 15.46278814965223 CZ-2C R/B 1 37731U 11030B 26194.85445747 .00000528 00000+0 72806-4 0 9993 2 37731 97.8668 149.7626 0050869 300.6468 120.5990 14.81530988808770 H-2A R/B 1 38341U 12025E 26194.98188708 .00000550 00000+0 54703-4 0 9992 2 38341 98.4847 172.3414 0042426 259.2239 100.4203 14.95836022767092 SHIJIAN-16 (SJ-16) 1 39358U 13057A 26195.18385456 .00000625 00000+0 63320-4 0 9997 2 39358 74.9739 305.5494 0015818 167.1626 192.9969 14.92668562690370 SL-4 R/B 1 39679U 14021B 26194.95523047 .00006912 00000+0 14490-3 0 9997 2 39679 51.6064 79.5833 0089754 203.9145 155.7659 15.42466475675741 ALOS-2 1 39766U 14029A 26195.19231174 .00000584 00000+0 85072-4 0 9990 2 39766 97.9233 291.9699 0001601 92.8596 267.2799 14.79472258655577 YAOGAN-29 1 41038U 15069A 26195.23231506 .00000234 00000+0 35332-4 0 9990 2 41038 98.0022 223.9064 0000782 13.5856 346.5379 14.83105383574638 ASTRO-H (HITOMI) 1 41337U 16012A 26194.46539588 .00001442 00000+0 79368-4 0 9995 2 41337 30.9985 264.4618 0009607 157.9025 202.2028 15.10628471571268 HXMT (HUIYAN) 1 42758U 17034A 26195.03606709 .00002357 00000+0 12173-3 0 9998 2 42758 43.0153 33.5161 0032417 313.6575 46.1587 15.18682725501743 SAOCOM 1A 1 43641U 18076A 26195.14026052 .00000284 00000+0 42197-4 0 9993 2 43641 97.8881 21.4972 0001454 86.6769 273.4611 14.82146577420096 H-2A R/B 1 43682U 18084L 26195.18832402 .00012636 00000+0 25778-3 0 9994 2 43682 98.8536 79.9969 0020629 304.2888 55.6403 15.46176958425292 SAOCOM 1B 1 46265U 20059A 26195.17147012 -.00000111 00000+0 -74315-5 0 9994 2 46265 97.8886 20.6244 0001570 79.6811 280.4579 14.82157348317485 CSS (TIANHE) 1 48274U 21035A 26195.18938242 .00000775 00000+0 14292-4 0 9996 2 48274 41.4690 157.9320 0002447 303.4143 56.6460 15.58062507297388 COSMOS 2550 1 48865U 21056A 26195.08551061 .00003452 00000+0 11073-3 0 9992 2 48865 67.1433 18.5402 0008499 270.7716 89.2464 15.33821705282849 CZ-2C R/B 1 52794U 22058K 26194.96847118 .00028571 00000+0 29651-3 0 9998 2 52794 50.1857 23.9648 0030357 17.4301 342.7709 15.63792673229836 CZ-2C R/B 1 54039U 22132E 26194.99488123 .00048489 00000+0 32776-3 0 9997 2 54039 97.2885 203.2817 0009670 348.0277 12.0756 15.74867223210164 GSLV R/B 1 54149U 22138AN 26195.18439531 .00001277 00000+0 10682-3 0 9992 2 54149 87.3819 123.9189 0023645 55.5171 304.8289 14.97379841202852 XRISM 1 57800U 23137A 26195.11457593 .00001975 00000+0 10463-3 0 9992 2 57800 31.0007 185.1463 0007907 235.5039 124.4854 15.12664469156948 ACS3 1 59588U 24077B 26195.17861571 .00002910 00000+0 20356-2 0 9993 2 59588 97.1735 107.9844 0124346 37.9191 323.0652 13.95298697111803 SPACEMOBILE-003 1 61045U 24163A 26195.16180117 .00000532 00000+0 38587-4 0 9994 2 61045 52.9668 185.3958 0004800 190.5328 169.5566 15.20702085101878 SPACEMOBILE-005 1 61046U 24163B 26194.09371225 .00000320 00000+0 29081-4 0 9992 2 61046 52.9757 190.2542 0008516 188.4778 171.6074 15.20746160101707 SPACEMOBILE-001 1 61047U 24163C 26192.44911905 .00000309 00000+0 28551-4 0 9993 2 61047 52.9736 197.5273 0007475 183.3179 176.7767 15.20792937101458 SPACEMOBILE-002 1 61048U 24163D 26195.12751280 .00008581 00000+0 39857-3 0 9990 2 61048 52.9768 185.2488 0006347 186.0416 174.0502 15.20784147101864 SPACEMOBILE-004 1 61049U 24163E 26193.40140888 .00012717 00000+0 58302-3 0 9998 2 61049 52.9682 192.9673 0006853 216.7757 143.2768 15.20795560101607 CZ-8A R/B 1 66004U 25231K 26194.53449013 -.00000085 00000+0 28262-4 0 9997 2 66004 50.0044 287.2242 0116553 316.7652 42.4160 14.30161916 38717 SZ-21 MODULE 1 66515U 25246C 26194.93053896 .00034507 00000+0 19171-3 0 9997 2 66515 41.4711 140.4717 0008041 212.4779 147.5572 15.78722659 37960 SPACEMOBILE-006 1 67232U 25309A 26195.02627466 .00000488 00000+0 38590-4 0 9993 2 67232 52.9935 208.6897 0010252 211.3780 148.6603 15.18651444 30670 SPACEMOBILE-008 1 69589U 26139A 26195.16185102 -.00000107 00000+0 10933-4 0 9993 2 69589 52.9946 140.0988 0005033 54.0321 306.1136 15.12801197 4065 SPACEMOBILE-009 1 69590U 26139B 26195.16374056 -.00000070 00000+0 13084-4 0 9992 2 69590 52.9938 140.1052 0005276 49.9484 310.1969 15.12694533 4066 SPACEMOBILE-010 1 69591U 26139C 26195.16673917 .00000048 00000+0 19806-4 0 9993 2 69591 52.9945 140.1266 0005195 41.7586 318.3801 15.12526359 4071